FW1555 Weather Reports


time (UTC)temp
C
wind
direction
speed
KPH
gust
KPH
rain 1hr
cm
rain 24hr
cm
rain mn
cm
humidity
%
barometer
mb
20260504033045 8 0 0.0 0.0 0.00 0.00 0.00 62 1011.7
20260504031556 7 0 0.0 0.0 0.00 0.00 0.00 63 1011.6
20260504030044 8 0 0.0 0.0 0.00 0.00 0.00 61 1011.7
20260504024544 8 0 0.0 0.0 0.00 0.00 0.00 60 1011.6
20260504023045 8 0 0.0 0.0 0.00 0.00 0.00 59 1011.7
20260504021550 9 0 0.0 0.0 0.00 0.00 0.00 57 1011.7
20260504014547 10 0 0.0 0.0 0.00 0.00 0.00 51 1011.5
20260504013048 11 0 0.0 0.0 0.00 0.00 0.00 48 1011.4
20260504011549 12 0 0.0 0.0 0.00 0.00 0.00 46 1011.4
20260504010053 12 0 0.0 0.0 0.00 0.00 0.00 45 1011.1
20260504004549 12 0 0.0 3.2 0.00 0.00 0.00 43 1011.0
20260504003051 12 267 0.0 8.0 0.00 0.00 0.00 41 1010.8
20260504001552 13 0 0.0 11.3 0.00 0.00 0.00 40 1010.5
20260504000050 13 0 0.0 6.4 0.00 0.00 0.00 39 1010.3
20260503234601 13 0 0.0 4.8 0.00 0.00 0.00 39 1010.1
20260503233051 13 0 1.6 11.3 0.00 0.00 0.00 37 1009.9
20260503231548 14 242 1.6 14.5 0.00 0.00 0.00 36 1009.8
20260503230051 15 267 0.0 16.1 0.00 0.00 0.00 35 1009.7
20260503224554 15 275 1.6 22.5 0.00 0.00 0.00 33 1009.6
20260503223050 15 271 6.4 29.0 0.00 0.00 0.00 33 1009.5
20260503221557 15 0 3.2 25.7 0.00 0.00 0.00 34 1009.5
20260503220051 15 268 1.6 22.5 0.00 0.00 0.00 32 1009.5
20260503214545 15 253 4.8 25.7 0.00 0.00 0.00 34 1009.6
20260503213049 15 265 8.0 20.9 0.00 0.00 0.00 32 1009.5
20260503211546 15 263 1.6 16.1 0.00 0.00 0.00 34 1009.5
20260503210050 15 258 6.4 25.7 0.00 0.00 0.00 33 1009.5
20260503204550 15 267 14.5 29.0 0.00 0.00 0.00 33 1009.4
20260503203055 15 311 4.8 16.1 0.00 0.00 0.00 34 1009.5
20260503201551 14 285 6.4 20.9 0.00 0.00 0.00 35 1009.5
20260503200054 14 274 4.8 27.4 0.00 0.00 0.00 36 1009.6
20260503194557 14 290 4.8 29.0 0.00 0.00 0.00 37 1009.8
20260503193049 13 234 11.3 24.1 0.00 0.00 0.00 36 1009.8
20260503191553 13 0 3.2 20.9 0.00 0.00 0.00 38 1010.0
20260503190048 13 0 3.2 20.9 0.00 0.00 0.00 39 1009.9
20260503184548 13 261 6.4 25.7 0.00 0.00 0.00 39 1010.1
20260503183053 12 285 3.2 16.1 0.00 0.00 0.00 42 1010.3
20260503181547 11 303 3.2 29.0 0.00 0.00 0.00 44 1010.5
20260503180058 12 244 3.2 32.2 0.00 0.00 0.00 45 1010.6
20260503174601 11 266 6.4 24.1 0.00 0.00 0.00 44 1010.7
20260503173107 11 0 4.8 20.9 0.00 0.00 0.00 44 1010.8
20260503171551 11 299 6.4 20.9 0.00 0.00 0.00 46 1010.8
20260503110106 6 0 0.0 1.6 0.00 0.00 0.00 67 1010.8
20260503081544 6 0 0.0 3.2 0.00 0.10 0.00 67 1010.0
20260503071603 6 0 0.0 0.0 0.00 0.10 0.00 67 1010.1
20260503060105 8 0 0.0 1.6 0.00 0.10 0.00 59 1010.3
20260503054556 8 0 0.0 3.2 0.00 0.10 0.00 59 1010.3
20260503053046 8 0 0.0 6.4 0.00 0.10 0.00 58 1010.6
20260503051542 8 0 0.0 4.8 0.00 0.10 0.00 56 1010.6
20260503050049 8 0 0.0 6.4 0.00 0.10 0.00 55 1010.7
20260503044547 9 0 0.0 8.0 0.00 0.10 0.00 55 1010.8
20260503043046 9 0 0.0 4.8 0.00 0.10 0.00 54 1010.9
20260503041549 10 0 0.0 1.6 0.00 0.10 0.00 54 1010.8
20260503040059 10 0 0.0 9.7 0.00 0.10 0.00 53 1011.0
20260503034541 10 0 0.0 6.4 0.00 0.10 0.10 52 1010.9